Regional Weather Roundup
Issued by NWS

Home | Current Version | Previous Version | Text Only | Print | Product List | Glossary On
Versions: 1 2 3 4 5 6 7 8 9 10 11 12 13 14 15 16 17 18 19 20 21 22 23 24 25 26 27 28 29 30 31 32 33 34 35 36 37 38 39 40 41 42 43 44 45 46 47 48 49 50
338
ASUS45 KPSR 272110
RWRAZ

ARIZONA HOURLY REGIONAL WEATHER ROUNDUP
NATIONAL WEATHER SERVICE PHOENIX AZ
200 PM MST MON MAR 27 2017

NOTE: FAIR INDICATES FEW OR NO CLOUDS BELOW 12,000 FEET WITH NO
SIGNIFICANT WEATHER AND/OR OBSTRUCTIONS TO VISIBILITY.

AZZ001>003-036-272200-
NORTHWEST ARIZONA

CITY           SKY/WX    TMP DP  RH WIND       PRES   REMARKS
BULLHEAD CITY  MOSUNNY   79  34  19 VRB7      29.76F
KINGMAN        SUNNY     67  13  12 SW23G31   29.84F
$$

AZZ004>008-015-016-018-272200-
NORTH CENTRAL ARIZONA

CITY           SKY/WX    TMP DP  RH WIND       PRES   REMARKS
GRAND CANYON   CLOUDY    52  23  32 SW24G33   29.86F
WILLIAMS       MOSUNNY   55  30  38 SW23G32   29.90F
PRESCOTT       PTSUNNY   61  34  36 SW21G29   29.88F
FLAGSTAFF      PTSUNNY   50  30  46 S21G28    29.91F
PAYSON         CLOUDY    59  30  33 SW9G15    29.95F
PAGE           MOSUNNY   66  29  24 N9        29.72F
$$

AZZ009>014-017-272200-
NORTHEAST ARIZONA

CITY           SKY/WX    TMP DP  RH WIND       PRES   REMARKS
WINSLOW        MOSUNNY   69  29  22 SW26G33   29.85F
SAINT JOHNS    LGT RAIN  55  32  41 W12       29.90F
WINDOW ROCK    CLOUDY    54  27  35 S10G20    29.92F
SHOW LOW       CLOUDY    54  23  30 S18G25    29.96S
$$

AZZ023-272200-
GREATER PHOENIX AREA

CITY           SKY/WX    TMP DP  RH WIND       PRES   REMARKS
PHOENIX        PTSUNNY   79  34  19 VRB6      29.79F
BUCKEYE        SUNNY     81  36  19 SW17G24   29.80F
GLENDALE       MOSUNNY   81  36  19 S10G18    29.81F
LUKE AFB       SUNNY     81  36  20 S18G24    29.78F
DEER VALLEY    MOSUNNY   78  36  21 SW18      29.79F
SCOTTSDALE     MOSUNNY   78  34  20 VRB7      29.82F
MESA-FALCON    MOSUNNY  N/A N/A N/A W8        29.79F
MESA-GATEWAY   MOSUNNY   79  36  21 W14G20    29.82F
CHANDLER       PTSUNNY   79  34  19 SW9       29.81F
$$

AZZ027-028-272200-
SOUTHWEST MARICOPA COUNTY AND PINAL COUNTY

CITY           SKY/WX    TMP DP  RH WIND       PRES   REMARKS
CASA GRANDE    NOT AVBL
GILA BEND      MOSUNNY   82  31  16 W18G24    29.79F
$$

AZZ503-504-507>509-272200-
SOUTHEAST ARIZONA

CITY           SKY/WX    TMP DP  RH WIND       PRES   REMARKS
TUCSON         MOSUNNY   80  27  14 W14G24    29.87F
DAVIS-MONTHAN  MOSUNNY   79  27  14 W15G24    29.85F
RYAN FIELD     SUNNY     79  30  17 SW16      29.87F
NOGALES        PTSUNNY   77  35  21 SW14G26   29.93F
SIERRA VISTA   CLOUDY    75  28  17 SW21      29.93F
DOUGLAS        MOSUNNY   78  17  10 SW20G26   29.90F
SAFFORD        CLOUDY    76  26  15 N9        29.82F
$$

AZZ020-021-025-026-031-272200-
SOUTHWEST ARIZONA

CITY           SKY/WX    TMP DP  RH WIND       PRES   REMARKS
YUMA           SUNNY     81  42  25 W13G22    29.82F
$$

CAZ031-033-041-043-047-048-061-272200-
SOUTHERN CALIFORNIA

CITY           SKY/WX    TMP DP  RH WIND       PRES   REMARKS
DOWNTOWN L.A.  SUNNY     73  38  27 NW8       29.96F
L.A. AIRPORT   MOSUNNY   66  53  63 W21       29.98F
SAN DIEGO      MOSUNNY   67  51  56 SW15      30.02F
BURBANK        SUNNY     69  36  29 N13G22    29.97F
ONTARIO        MOSUNNY   69  46  43 W13G22    29.95F
RIVERSIDE      PTSUNNY   70  49  47 SW13      29.95F
PALM SPRINGS   SUNNY     80  39  23 NW15G29   29.83F
EL CENTRO NAS  MOSUNNY   83  27  13 W23G30    29.84F
IMPERIAL       SUNNY     80  39  23 W15G22    29.82F
BLYTHE         SUNNY     81  34  18 W10G21    29.80F
NEEDLES        SUNNY     81  34  18 NW9G23    29.79F
$$

NVZ020-UTZ003-272200-
SOUTHERN NEVADA-UTAH

CITY           SKY/WX    TMP DP  RH WIND       PRES   REMARKS
LAS VEGAS      TSTM      67  36  31 NW12G17   29.80F
SALT LAKE CITY LGT RAIN  42  40  92 S6        29.86F
$$

NMZ009-TXZ055-272200-
NEW MEXICO-WEST TEXAS

CITY           SKY/WX    TMP DP  RH WIND       PRES   REMARKS
ALBUQUERQUE    PTSUNNY   65  18  16 SW14G20   29.87F
EL PASO        SUNNY     78  15   9 SW12G26   29.87F
$$


........................KEY........................
SKY/WX - SKY CONDITION/WEATHER
TMP    - TEMPERATURE IN FAHRENHEIT
DP     - DEW POINT IN FAHRENHEIT
RH     - RELATIVE HUMIDITY IN PERCENT
WIND   - DIRECTION AND SPEED IN MILES PER HOUR (MPH)
VRB    - VARIABLE WIND DIRECTION
PRES   - MEAN SEA LEVEL PRESSURE IN INCHES OF MERCURY
         F - FALLING PRESSURE   R - RISING PRESSURE
         S - STEADY PRESSURE
VSB    - VISIBILITY IN MILES
HX     - HEAT INDEX IN FAHRENHEIT
WCI    - WIND CHILL INDEX IN FAHRENHEIT
TC     - TEMPERATURE IN CELSIUS WHICH IS ALSO KNOWN AS
         TEMPERATURE IN CENTIGRADE
AFB    - AIR FORCE BASE
         LUKE AFB IS LUKE AIR FORCE BASE
         DAVIS-MONTHAN IS DAVIS-MONTHAN AIR FORCE BASE
NAS    - NAVAL AIR STATION
         EL CENTRO NAS IS EL CENTRO NAVAL AIR STATION
N/A    - NOT AVAILABLE





USA.gov is the U.S. government's official web portal to all federal, state and local government web resources and services.